Miscellaneous Local Product
Issued by NWS Hastings, NE

Home | Current Version | Previous Version | Graphics & Text | Print | Product List | Glossary On
Versions: 1 2 3 4 5 6 7 8 9 10 11 12 13 14 15 16 17 18 19 20 21 22 23 24 25 26 27 28 29 30 31 32 33 34 35 36 37 38 39 40 41 42 43 44 45 46 47 48 49 50
000
AXUS43 KGID 221202
MISGRI

GID CWA HOURLY WEATHER ROUNDUP
NATIONAL WEATHER SERVICE HASTINGS NE
700 AM CDT SAT APR 22 2017

NOTE: "FAIR" INDICATES FEW OR NO CLOUDS BELOW 12,000 FEET WITH NO
SIGNIFICANT WEATHER AND/OR OBSTRUCTIONS TO VISIBILITY.

...SOUTH CENTRAL NEBRASKA...

CITY           SKY/WX    TMP DP  RH WIND       PRES   REMARKS
GRAND ISLAND   MOCLDY    37  36  96 N7        30.25R WCI  32
HASTINGS       PTCLDY    41  36  82 N7        30.25R
KEARNEY        PTCLDY    37  32  81 NW6       30.26R WCI  33
ORD            PTCLDY    36  33  89 NW6       30.26R WCI  31
YORK           CLOUDY    39  37  93 N8        30.25R WCI  34
AURORA         CLOUDY    39  37  92 N7        30.25R WCI  34
LEXINGTON      PTCLDY    32  31  93 W6        30.27R WCI  27
HOLDREGE       CLOUDY    37  33  87 N6        30.25R WCI  32
HEBRON         PTCLDY    43  36  76 N10       30.22R

...NEBRASKA PANHANDLE...

CITY           SKY/WX    TMP DP  RH WIND       PRES   REMARKS
CHADRON        CLEAR     34  30  85 W5        30.26R WCI  30
ALLIANCE       CLEAR     28  27  96 SE5       30.25S WCI  23
SCOTTSBLUFF    CLEAR     33  30  88 E3        30.26R
SIDNEY         PTCLDY    35  34  96 W3        30.26S

...WESTERN AND NORTH CENTRAL NEBRASKA...

CITY           SKY/WX    TMP DP  RH WIND       PRES   REMARKS
VALENTINE      CLEAR     28  24  85 SW6       30.28S WCI  22
AINSWORTH      CLEAR     35  33  93 W5        30.28R WCI  31
ONEILL         CLOUDY    40  37  87 NW5       30.28R
BROKEN BOW     PTCLDY    37  32  82 N8        30.26R WCI  31
IMPERIAL       MOCLDY    36  33  89 NW5       30.28R WCI  32
NORTH PLATTE   PTCLDY    28  27  96 NW6       30.28R WCI  22
MCCOOK         CLOUDY    36  34  92 NW7       30.27R WCI  30

...EASTERN NEBRASKA...

CITY           SKY/WX    TMP DP  RH WIND       PRES   REMARKS
NORFOLK        PTCLDY    36  34  92 W5        30.25R WCI  32
SO SIOUX CITY  CLOUDY    38  37  97 NW6       30.27R WCI  33
TEKAMAH        MOCLDY    40  37  89 N7        30.25R
COLUMBUS       PTCLDY    43  36  75 N7        30.26R
ALBION         CLOUDY    38  35  91 NW6       30.27R WCI  33
OMAHA EPPLEY   CLOUDY    39  35  86 N8        30.24R WCI  33
OFFUTT AFB     PTCLDY    42  36  79 CALM      30.22R
MILLARD        CLEAR     45  39  82 NW5       30.24R
LINCOLN        PTCLDY    39  36  89 N8        30.24R WCI  33
NEBRASKA CITY  MOCLDY    42  35  75 N7        30.21R
BEATRICE       CLEAR     43  38  83 N5        30.22R
FALLS CITY     CLOUDY    45  39  79 N8        30.18R

...NORTHERN KANSAS...

CITY           SKY/WX    TMP DP  RH WIND       PRES   REMARKS
GOODLAND       CLEAR     35  34  96 NW3       30.26R
HILL CITY      CLOUDY    43  40  89 N9        30.26R
NORTON         MOSUNNY   39  32  75 NW7       30.25R WCI  34
PHILLIPSBURG   CLEAR     43  39  87 NW6       30.25R
SMITH CENTER   CLEAR     39  37  93 N8        30.24R WCI  34
HAYS           CLOUDY    44  40  85 N14       30.22R
RUSSELL        CLOUDY    45  41  86 N12       30.20R
CONCORDIA      CLOUDY    44  39  82 N10       30.20R
SALINA         CLOUDY    49  40  71 N9        30.17R
TOPEKA         CLOUDY    49  40  71 N10       30.14R



USA.gov is the U.S. government's official web portal to all federal, state and local government web resources and services.